www.pogodaiklimat.ru
ПОГОДА в Манитовоке
Время
и дата
16:56 29.11
17:56 29.11
18:56 29.11
19:56 29.11
20:56 29.11
21:56 29.11
22:56 29.11
23:56 29.11
00:56 30.11
01:56 30.11
02:56 30.11
03:56 30.11
04:56 30.11
05:56 30.11
06:56 30.11
07:56 30.11
08:56 30.11
09:56 30.11
10:56 30.11
11:56 30.11
12:56 30.11
13:56 30.11
14:56 30.11
15:21 30.11
15:56 30.11
16:56 30.11
17:56 30.12
18:56 30.11
19:56 30.11
20:56 30.11
21:34 30.11
21:56 30.11
22:56 30.11
23:56 30.11
00:56 01.12
01:56 01.12
02:56 01.12
03:56 01.12
04:56 01.12
05:56 01.12
06:56 01.12
07:56 01.12
08:56 01.12
09:56 01.12
10:56 01.12
11:56 01.12
12:56 01.12
13:56 01.12
Ветер
(напр.,м/с)
Видим. Явления Облачность Т
(С)
Тd
(С)
f
(%)
Тe
(С)
Тes
(С)
Комфортность P
(гПа)
Po
(гПа)
Тmin
(С)
Tmax
(С)
R
(мм)
R24
(мм)
S
(см)
СЗ 3
{5}
16 км 10/10 1200 м +3.3 -2.8 64 -2 -2 1014.9 990.5
СЗ 3
{4}
16 км 10/10 1200 м +3.3 -3.9 59 -2 -2 1015.4 991.2 +3.3 +7.8
СЗ 4
{4}
16 км 10/10 1260 м +2.8 -3.9 61 -3 -3 1015.5 991.2
СЗ 3 16 км 10/10 1200 м +2.2 -3.9 64 -4 -4 1015.8 991.5
СЗ 3 16 км 10/10 1140 м +1.7 -5.0 61 -4 -4 1016.2 991.8
С 3
{4}
16 км 10/10 1080 м +1.7 -4.4 64 -4 -4 1016.7 992.5
С 4
{5}
16 км 10/10 1140 м +0.6 -6.1 61 -7 -7 1016.9 992.5
С 3
{4}
16 км 10/10 1140 м +0.6 -6.1 61 -6 -6 1017.0 992.8 +0.6 +3.3
С 3
{5}
16 км 10/10 1020 м 0.0 -5.6 66 -7 -7 1017.2 992.8
С 4
{5}
16 км 10/10 960 м -0.6 -6.1 66 -8 -8 1017.4 993.2
С 4
{6}
16 км 10/10 1020 м -1.1 -7.2 63 -9 -9 1017.3 992.8
С 4
{5}
16 км 10/10 960 м -1.7 -6.7 69 -9 -9 1017.8 993.5
С 4
{5}
14 км слабый снег 10/10 840 м -2.2 -6.7 71 -10 -10 1017.9 993.5
С 4 16 км 10/10 720 м -2.2 -6.7 71 -10 -10 1018.3 993.8 -2.2 +0.6
С 4
{4}
14 км 10/10 720 м -2.8 -6.7 74 -11 -11 1018.5 993.8
С 4
{5}
16 км 10/10 780 м -2.2 -6.7 71 -10 -10 1018.6 994.2
С 4
{6}
16 км 10/10 780 м -2.2 -6.7 71 -10 -10 1018.3 993.8
С 3
{4}
14 км 10/10 780 м -2.2 -6.1 75 -10 -10 1018.4 993.8
С 4
{5}
14 км 10/10 720 м -1.7 -6.1 72 -9 -9 1017.9 993.2
С 4
{6}
16 км 10/10 720 м -1.7 -6.1 72 -10 -10 1017.3 992.5 -2.8 -1.7
С 3
{5}
16 км слабый снег 10/10 720 м -1.7 -6.1 72 -9 -9 1017.0 992.5
СЗ 3
{5}
16 км 10/10 780 м -1.7 -6.1 72 -9 -9 1017.1 992.5
С 4
{5}
16 км 10/10 840 м -1.7 -6.7 69 -10 -10 1017.2 992.5
С 3
{4}
16 км 10/10 900 м -2.0 -7.0 69 -9 -9 992.5
С 3
{4}
16 км 10/10 900 м -1.7 -6.7 69 -8 -8 1017.5 992.8
С 4
{4}
16 км 10/10 960 м -1.7 -6.7 69 -9 -9 1017.6 993.2
С 4 16 км 10/10 960 м -1.7 -6.7 69 -9 -9 1017.6 993.2 -1.7 -1.7
С 4 16 км 10/10 960 м -2.2 -7.8 65 -10 -10 1017.6 993.2
С 4
{5}
16 км 10/10 960 м -2.2 -7.8 65 -10 -10 1017.5 992.8
С 2 16 км 10/10 900 м -2.2 -7.8 65 -8 -8 1017.7 993.2
С 3
{4}
16 км 10/10 840 м -3.0 -7.0 74 -11 -11 993.2
С 2 16 км 10/10 840 м -2.8 -7.2 72 -9 -9 1017.5 992.8
С 3
{4}
16 км 10/10 780 м -2.8 -7.2 72 -10 -10 1017.4 992.8
С 2
{4}
16 км 10/10 780 м -2.8 -7.2 72 -9 -9 1017.1 992.5 -2.8 -1.7
С 3
{4}
16 км 10/10 720 м -2.8 -7.2 72 -10 -10 1016.6 992.2
С 3
{4}
16 км 10/10 720 м -2.8 -6.7 74 -10 -10 1016.8 992.2
С 3
{4}
16 км 10/10 720 м -2.8 -6.7 74 -10 -10 1016.7 992.2
С 3
{4}
16 км 10/10 720 м -2.8 -6.7 74 -10 -10 1016.3 991.8
С 3
{4}
16 км 10/10 720 м -2.8 -6.7 74 -10 -10 1016.4 991.8
С 3 16 км 10/10 720 м -2.2 -6.1 75 -10 -10 1017.0 992.5 -2.8 -2.2
СЗ 3 16 км 10/10 660 м -3.9 -6.7 81 -11 -11 1017.6 993.2
СЗ 3 16 км 10/10 660 м -4.4 -6.7 84 -12 -12 1018.2 993.5
СЗ 2 16 км 10/10 600 м -3.9 -6.7 81 -11 -11 1018.5 993.8
СЗ 3 16 км 2/2 600 м -1.1 -5.6 71 -8 -7 1018.5 993.8
С 3 16 км ясно 0.0 -5.0 69 -6 -5 1018.3 993.5
С 3 16 км ясно +0.6 -6.1 61 -5 -4 1018.2 993.5 -4.4 +0.6
СЗ 3 16 км ясно +1.1 -6.1 59 -5 -3 1018.0 993.5
СЗ 3 16 км ясно +1.1 -6.7 56 -5 -4 1017.9 993.2
Местоположение метеостанции Manitowoc County Airport: широта 44.1333 долгота -87.6833 высота над уровнем моря 198 м.
В архиве по умолчанию представлена погода в Манитовоке за последние 1-2 суток. Обновление информации о фактической погоде в базе происходит ежечасно! Архивные данные за месяц целиком и за предыдущие месяцы Вы можете получить, выбрав интересующий диапазон дат из раскрывающегося списка и нажав кнопку "Ввод!".
Внимание! Архив погоды МЕТАР в базе сайта по станциям, не включенным в климатический монитор, хранится не более 60 дней. Нет смысла пытаться выбрать более раннюю дату.
*Определитесь, кто Вы:
Внимание! Время в таблицах - местное (без учета летнего времени). Для получения всемирного времени необходимо вычесть поправку, которая равна -6 ч.
Смотрите также архив погоды в соседних городах и на ближайших метеорологических станциях:
Партнеры нашего сайта:      
Пояснения к столбцам:
  • Ветер - указаны скорость ветра в м/с - средняя за 10 мин, порывы в срок и между сроками (в фигурных скобках) и направление, откуда дует ветер: С - северный,
  • СВ - северо-восточный, В - восточный, ЮВ - юго-восточный, Ю - южный, ЮЗ - юго-западный, З - западный, СЗ - северо-западный.
  • Видимость - горизонтальная дальность видимости в метрах или километрах. При видимости от 1 до 10 км при отсутствии осадков обычно наблюдается дымка, при ухудшении видимости до 1 км и менее - туман. В сухую погоду видимость может ухудшаться дымом, пылью или мглою.
  • Явления - указаны атмосферные явления, наблюдавшиеся в срок или в последний час перед сроком; фигурными скобками обозначены явления, наблюдавшиеся между сроками (за 1-3 часа до срока); квадратными скобками обозначены град или гололедные отложения с указанием их диаметра в мм.
  • Облачность - указаны через наклонную черту общая и нижняя облачность в баллах и высота нижней границы облаков в метрах; квадратными скобками обозначены формы облаков: Ci - перистые, Cs - перисто-слоистые, Cc - перисто-кучевые, Ac - высококучевые, As - высокослоистые, Sc - слоисто-кучевые, Ns - слоисто-дождевые, Cu - кучевые, Cb - кучево-дождевые. Подробнее классификацию облаков см. в Атласе облаков (PDF).
  • T - Температура воздуха - температура, измеренная на высоте 2 м над землей.
  • Td - Температура точки росы - температура, при понижении до которой содержащийся в воздухе водяной пар достигнет насыщения.
  • f - Относительная влажность воздуха - влажноcть воздуха, измеренная на высоте 2 м над землей.
  • Te - Эффективная температура - температура, которую ощущает одетый по сезону человек в тени. Характеристика душности погоды. При расчете учитывается влияние влажности воздуха и скорости ветра на теплоощущения человека.
  • Tes - Эффективная температура на солнце - температура, которую ощущает человек, с поправкой на солнечный нагрев. Характеристика знойности погоды. Зависит от высоты солнца над горизонтом, облачности и скорости ветра. Ночью, в пасмурную погоду, а также при ветре 12 м/с и более поправка равна нулю.
  • P - Атмосферное давление - приведенное к уровню моря атмосферное давление.
  • Po - Атмосферное давление - измеренное на уровне метеостанции атмосферное давление.
  • Tmin - Минимальная температура - минимум температуры воздуха на высоте 2 м над землей.
  • Tmax - Максимальная температура - максимум температуры воздуха на высоте 2 м над землей.
  • R - Количество осадков - Количество выпавших осадков за период времени, мм. При наведении курсора мыши на число - период времени, за который выпало указанное количество осадков.
  • R24 - Количество осадков - Количество выпавших осадков за 24 часа, мм.
  • S - Снежный покров - Высота снежного покрова, см. При наведении курсора мыши на число - состояние снежного покрова и степень покрытия местности в баллах.